GALAXY 4R

导读

**GALAXY 4R(银河4R)是美国休斯公司研发的通信卫星,属于银河卫星系列。2000年4月19日于圭亚那航天中心由阿丽亚娜4 2L运载火箭发射升空,定点于地球静止轨道(GEO),轨道高度约35900公里,倾角12.1°。卫星起飞质量3668千克,设计寿命15年,主要承担商业通信转发服务,接替原Galaxy 4卫星的业务,为区域提供稳定的广播电视与通信传输支持。**

基本信息
目录编号:
26298
目录名称:
GALAXY 4R
国际标识:
2000-020A
轨道中心:
EARTH
卫星名称:
GALAXY 4R
卫星全名:
--
卫星状态:
在轨 (已飞行9550 天)
发射日期:
2000-04-19 UTC
国别 :
美国 (US)
星等 :
--
轨道信息
数据来源 国际轨道数据 AOE轨道数据
星历时间 2026-06-12T06:29:11+0800
21小时前
查看轨道信息
2026-06-12T18:00:00+0800
10小时前
查看轨道信息
半长轴 42285.225km 42285.254km
偏心率 0.000343 0.0003455
轨道倾角 12.738° 12.739°
近地点辐角 216.521° 217.133°
升交点赤经 24.098° 24.095°
平近点角 141.350° 313.181°
近地点 35892.584km 35892.507km
远地点 35921.592km 35921.727km
周期 1442.257分钟 1442.259分钟
每日圈数 0.998435 0.998434
详细信息
使用方式:
暂无
2D轨道图
3D轨道图
轨道高度分析图
轨道倾角分析图
轨道综合分析图
查看轨道综合分析图